パンスターズ彗星

C/2017 M3 ( PanSTARRS )

English version
Home page
Updated on October 8, 2017

---------------------------------------------------------------------

・ プロフィール

発見日 2017年6月20日
発見光度 21.1等
発見者 Pan-STARRS 1 telescope (Haleakala)

・ 軌道要素

Epoch 2017 May 7.0 TT = JDT 2457880.5
T 2017 Apr. 28.09803 TT                                 MPCW
q   4.6587754            (2000.0)            P               Q
z  +0.0043391      Peri.  110.29313     -0.36897613     -0.92179566
 +/-0.0006251      Node     6.99830     -0.21812529     -0.03852632
e   0.9797849      Incl.   77.49861     +0.90348103     -0.38575703
From 27 observations 2017 June 20-July 19, mean residual 0".3.

・ 光度変化

        m1 = 10.5 + 5 logΔ + 10.0 log r

---------------------------------------------------------------------

軌道要素はM.P.E.C. 2017-T14に掲載されたものです。
光度グラフはComet for Windowsで作成したものです。

---------------------------------------------------------------------

Copyright(C) Seiichi Yoshida (comet@aerith.net). All rights reserved.